OE3AOG Weather Reports


Display with metric or nautical units.
time (UTC)temp
F
wind
direction
speed
MPH
gust
MPH
rain 1hr
in
rain 24hr
in
rain mn
in
humidity
%
barometer
mb
20260503004520 47 111 1.0 2.0 0.00 0.00 0.00 69 1017.2
20260503003529 48 108 1.0 2.0 0.00 0.00 0.00 68 1017.1
20260503002521 48 140 2.0 3.0 0.00 0.00 0.00 68 1017.3
20260503001529 49 108 1.0 2.0 0.00 0.00 0.00 67 1017.3
20260503000521 49 120 1.0 2.0 0.00 0.00 0.00 67 1017.4
20260502235529 49 145 1.0 2.0 0.00 0.00 0.00 66 1017.5
20260502234521 50 142 0.0 2.0 0.00 0.00 0.00 65 1017.7
20260502233528 50 163 1.0 2.0 0.00 0.00 0.00 64 1017.8
20260502232521 50 179 1.0 3.0 0.00 0.00 0.00 64 1017.7
20260502231529 50 153 1.0 2.0 0.00 0.00 0.00 64 1017.8
20260502230521 51 124 0.0 2.0 0.00 0.00 0.00 63 1018.1
20260502225522 51 132 1.0 2.0 0.00 0.00 0.00 63 1018.1
20260502224529 51 119 1.0 4.0 0.00 0.00 0.00 63 1018.3
20260502223521 50 135 1.0 2.0 0.00 0.00 0.00 63 1018.3
20260502222537 50 126 1.0 2.0 0.00 0.00 0.00 65 1018.3
20260502221530 50 109 1.0 2.0 0.00 0.00 0.00 64 1018.3
20260502220522 51 107 1.0 2.0 0.00 0.00 0.00 63 1018.4
20260502215529 51 101 1.0 2.0 0.00 0.00 0.00 62 1018.4
20260502214521 52 121 1.0 2.0 0.00 0.00 0.00 61 1018.3
20260502213529 52 117 0.0 2.0 0.00 0.00 0.00 61 1018.4
20260502212521 52 125 1.0 2.0 0.00 0.00 0.00 61 1018.5
20260502211530 52 108 0.0 2.0 0.00 0.00 0.00 61 1018.5
20260502210521 52 123 1.0 2.0 0.00 0.00 0.00 60 1018.6
20260502205530 53 122 1.0 2.0 0.00 0.00 0.00 60 1018.7
20260502204522 54 111 0.0 1.0 0.00 0.00 0.00 58 1018.8
20260502203529 54 87 0.0 2.0 0.00 0.00 0.00 57 1018.9
20260502202521 55 130 0.0 2.0 0.00 0.00 0.00 56 1018.8
20260502201530 55 131 1.0 2.0 0.00 0.00 0.00 55 1018.9
20260502200521 56 129 1.0 2.0 0.00 0.00 0.00 54 1019.0
20260502195522 56 125 0.0 1.0 0.00 0.00 0.00 53 1019.0
20260502194530 57 104 1.0 2.0 0.00 0.00 0.00 52 1019.1
20260502193521 58 105 0.0 2.0 0.00 0.00 0.00 51 1019.2
20260502192529 59 138 1.0 2.0 0.00 0.00 0.00 51 1019.0
20260502191521 59 130 1.0 2.0 0.00 0.00 0.00 49 1019.0
20260502190529 60 127 0.0 2.0 0.00 0.00 0.00 47 1018.9
20260502185530 62 109 0.0 2.0 0.00 0.00 0.00 45 1019.0
20260502184522 63 135 0.0 2.0 0.00 0.00 0.00 43 1018.9
20260502183530 65 123 0.0 1.0 0.00 0.00 0.00 40 1018.7
20260502182522 66 139 0.0 2.0 0.00 0.00 0.00 37 1018.6
20260502181529 67 134 1.0 2.0 0.00 0.00 0.00 36 1018.6
20260502180521 68 120 2.0 3.0 0.00 0.00 0.00 35 1018.5
20260502163522 73 94 3.0 6.0 0.00 0.00 0.00 27 1018.6
20260502162530 73 60 1.0 5.0 0.00 0.00 0.00 27 1018.7
20260502161521 73 75 2.0 6.0 0.00 0.00 0.00 27 1018.8
20260502160542 73 71 2.0 7.0 0.00 0.00 0.00 27 1019.0
20260502151522 74 99 3.0 6.0 0.00 0.00 0.00 27 1019.5
20260502150530 74 78 3.0 5.0 0.00 0.00 0.00 28 1019.4
20260502130522 74 349 1.0 6.0 0.00 0.00 0.00 27 1020.8
20260502123530 74 76 3.0 9.0 0.00 0.00 0.00 27 1021.1
20260502122522 74 65 2.0 6.0 0.00 0.00 0.00 27 1021.2
20260502121530 73 107 4.0 7.0 0.00 0.00 0.00 27 1021.5
20260502120522 73 115 2.0 7.0 0.00 0.00 0.00 27 1021.5
20260502115530 73 71 2.0 6.0 0.00 0.00 0.00 27 1021.6
20260502114523 73 56 3.0 9.0 0.00 0.00 0.00 28 1021.8
20260502113530 73 83 4.0 9.0 0.00 0.00 0.00 27 1021.9
20260502112522 73 63 2.0 6.0 0.00 0.00 0.00 27 1022.0
20260502111530 72 91 3.0 8.0 0.00 0.00 0.00 29 1022.1
20260502110522 73 79 3.0 8.0 0.00 0.00 0.00 28 1022.2
20260502105530 72 96 3.0 7.0 0.00 0.00 0.00 28 1022.2
20260502104522 71 58 3.0 6.0 0.00 0.00 0.00 30 1022.4
20260502103530 72 86 4.0 9.0 0.00 0.00 0.00 30 1022.5
20260502102522 71 101 3.0 6.0 0.00 0.00 0.00 30 1022.7
20260502101530 71 57 3.0 9.0 0.00 0.00 0.00 31 1022.8
20260502100531 72 107 3.0 7.0 0.00 0.00 0.00 32 1022.9
20260502091530 70 67 3.0 6.0 0.00 0.00 0.00 36 1023.4
20260502090522 70 100 2.0 6.0 0.00 0.00 0.00 36 1023.4
20260502071522 67 76 2.0 6.0 0.00 0.00 0.00 42 1023.8
20260502070530 67 67 1.0 4.0 0.00 0.00 0.00 41 1023.9
20260502065531 67 67 1.0 4.0 0.00 0.00 0.00 41 1023.8
20260502064523 67 48 1.0 3.0 0.00 0.00 0.00 41 1023.9
20260502063531 65 75 1.0 2.0 0.00 0.00 0.00 42 1023.8
20260502062531 65 132 3.0 4.0 0.00 0.00 0.00 42 1023.8
20260502061523 64 98 2.0 3.0 0.00 0.00 0.00 42 1023.9
20260502060531 63 152 1.0 3.0 0.00 0.00 0.00 44 1023.8
20260502055523 62 132 1.0 3.0 0.00 0.00 0.00 46 1023.8
20260502054531 60 126 2.0 3.0 0.00 0.00 0.00 47 1023.8
20260502053523 58 162 1.0 3.0 0.00 0.00 0.00 51 1024.0
20260502052531 57 146 2.0 5.0 0.00 0.00 0.00 51 1023.9
20260502051523 57 135 2.0 4.0 0.00 0.00 0.00 51 1023.9
20260502050530 57 117 2.0 5.0 0.00 0.00 0.00 52 1023.9
20260502045531 53 129 3.0 4.0 0.00 0.00 0.00 58 1024.0
20260502044523 51 30 3.0 5.0 0.00 0.00 0.00 61 1023.9
20260502043531 49 10 2.0 4.0 0.00 0.00 0.00 64 1023.7
20260502042523 48 32 3.0 5.0 0.00 0.00 0.00 65 1023.7
20260502041530 49 3 3.0 6.0 0.00 0.00 0.00 64 1023.7
20260502040531 50 30 4.0 7.0 0.00 0.00 0.00 61 1023.7
20260502035532 50 56 4.0 6.0 0.00 0.00 0.00 61 1023.7
20260502034523 50 3 2.0 4.0 0.00 0.00 0.00 60 1023.5
20260502033531 51 145 2.0 4.0 0.00 0.00 0.00 59 1023.4
20260502032523 51 107 2.0 5.0 0.00 0.00 0.00 58 1023.5
20260502031530 52 176 1.0 3.0 0.00 0.00 0.00 57 1023.4
20260502030523 52 150 1.0 4.0 0.00 0.00 0.00 56 1023.4
20260502025523 53 172 1.0 3.0 0.00 0.00 0.00 55 1023.4
20260502024523 53 322 2.0 4.0 0.00 0.00 0.00 54 1023.4
20260502023532 54 290 1.0 4.0 0.00 0.00 0.00 53 1023.4
20260502022523 54 208 1.0 4.0 0.00 0.00 0.00 52 1023.5
20260502021531 53 35 1.0 4.0 0.00 0.00 0.00 54 1023.5
20260502020523 52 84 0.0 3.0 0.00 0.00 0.00 57 1023.5
20260502015530 52 136 1.0 3.0 0.00 0.00 0.00 58 1023.5
20260502014522 52 144 1.0 4.0 0.00 0.00 0.00 58 1023.6
20260502013515 51 202 1.0 3.0 0.00 0.00 0.00 59 1023.7
20260502012523 51 114 1.0 2.0 0.00 0.00 0.00 59 1023.8
20260502011532 52 93 2.0 3.0 0.00 0.00 0.00 58 1023.8
20260502010523 52 117 1.0 3.0 0.00 0.00 0.00 56 1023.9
20260502005531 53 108 1.0 2.0 0.00 0.00 0.00 56 1023.9